date,time,SUV Intensity [MED/Hr],UV Index,Daily total [MED],Since Last [MED]
02/04/2022,00:06:26,-0.001,0.0,0.0,0.0
02/04/2022,00:07:34,-0.001,0.0,0.0,0.0
02/04/2022,00:08:25,0.000,0.0,0.0,0.0
02/04/2022,00:09:26,0.001,0.0,0.0,0.0
02/04/2022,00:10:26,0.001,0.0,0.0,0.0
02/04/2022,00:11:26,0.000,0.0,0.0,0.0
02/04/2022,00:12:26,-0.001,0.0,0.0,0.0
02/04/2022,00:13:25,0.000,0.0,0.0,0.0
02/04/2022,00:14:26,0.000,0.0,0.0,0.0
02/04/2022,00:15:26,0.000,0.0,0.0,0.0
02/04/2022,00:16:25,-0.001,0.0,0.0,0.0
02/04/2022,00:17:34,0.000,0.0,0.0,0.0
02/04/2022,00:18:33,0.001,0.0,0.0,0.0
02/04/2022,00:19:26,0.000,0.0,0.0,0.0
02/04/2022,00:20:26,0.000,0.0,0.0,0.0
02/04/2022,00:21:26,-0.000,0.0,0.0,0.0
02/04/2022,00:22:26,0.000,0.0,0.0,0.0
02/04/2022,00:23:26,0.000,0.0,0.0,0.0
02/04/2022,00:24:26,-0.001,0.0,0.0,0.0
02/04/2022,00:25:34,0.000,0.0,0.0,0.0
02/04/2022,00:27:26,0.000,0.0,0.0,0.0
02/04/2022,00:28:28,0.000,0.0,0.0,0.0
02/04/2022,00:29:26,0.000,0.0,0.0,0.0
02/04/2022,00:30:26,0.000,0.0,0.0,0.0
02/04/2022,00:31:26,0.000,0.0,0.0,0.0
02/04/2022,00:32:34,0.001,0.0,0.0,0.0
02/04/2022,00:33:26,0.000,0.0,0.0,0.0
02/04/2022,00:34:26,0.000,0.0,0.0,0.0
02/04/2022,00:35:26,0.000,0.0,0.0,0.0
02/04/2022,00:36:26,0.000,0.0,0.0,0.0
02/04/2022,00:37:26,0.001,0.0,0.0,0.0
02/04/2022,00:38:26,-0.001,0.0,0.0,0.0
02/04/2022,00:39:26,-0.001,0.0,0.0,0.0
02/04/2022,00:40:26,0.001,0.0,0.0,0.0
02/04/2022,00:41:25,-0.001,0.0,0.0,0.0
02/04/2022,00:42:34,-0.001,0.0,0.0,0.0
02/04/2022,00:43:34,-0.001,0.0,0.0,0.0
02/04/2022,00:44:26,0.000,0.0,0.0,0.0
02/04/2022,00:45:26,0.000,0.0,0.0,0.0
02/04/2022,00:46:26,0.000,0.0,0.0,0.0
02/04/2022,00:47:26,0.001,0.0,0.0,0.0
02/04/2022,00:48:26,0.001,0.0,0.0,0.0
02/04/2022,00:49:26,0.000,0.0,0.0,0.0
02/04/2022,00:50:26,0.000,0.0,0.0,0.0
02/04/2022,00:51:25,0.001,0.0,0.0,0.0
02/04/2022,00:52:25,0.000,0.0,0.0,0.0
02/04/2022,00:53:34,0.000,0.0,0.0,0.0
02/04/2022,00:54:25,0.000,0.0,0.0,0.0
02/04/2022,00:55:25,-0.000,0.0,0.0,0.0
02/04/2022,00:56:26,0.001,0.0,0.0,0.0
02/04/2022,00:57:27,-0.001,0.0,0.0,0.0
02/04/2022,00:58:43,0.001,0.0,0.0,0.0
02/04/2022,01:00:17,0.000,0.0,0.0,0.0
02/04/2022,01:01:27,-0.001,0.0,0.0,0.0
02/04/2022,01:02:26,0.000,0.0,0.0,0.0
02/04/2022,01:03:26,0.000,0.0,0.0,0.0
02/04/2022,01:04:26,0.000,0.0,0.0,0.0
02/04/2022,01:05:26,0.000,0.0,0.0,0.0
02/04/2022,01:06:26,0.000,0.0,0.0,0.0
02/04/2022,01:07:26,0.000,0.0,0.0,0.0
02/04/2022,01:08:26,0.000,0.0,0.0,0.0
02/04/2022,01:09:26,0.000,0.0,0.0,0.0
02/04/2022,01:10:26,0.000,0.0,0.0,0.0
02/04/2022,01:11:26,0.000,0.0,0.0,0.0
02/04/2022,01:12:25,0.001,0.0,0.0,0.0
02/04/2022,01:13:26,0.000,0.0,0.0,0.0
02/04/2022,01:14:26,0.000,0.0,0.0,0.0
02/04/2022,01:15:26,0.000,0.0,0.0,0.0
02/04/2022,01:16:25,-0.000,0.0,0.0,0.0
02/04/2022,01:17:26,0.000,0.0,0.0,0.0
02/04/2022,01:18:26,0.000,0.0,0.0,0.0
02/04/2022,01:19:26,-0.000,0.0,0.0,0.0
02/04/2022,01:20:26,0.000,0.0,0.0,0.0
02/04/2022,01:21:34,0.000,0.0,0.0,0.0
02/04/2022,01:22:25,-0.001,0.0,0.0,0.0
02/04/2022,01:23:26,0.000,0.0,0.0,0.0
02/04/2022,01:24:26,0.000,0.0,0.0,0.0
02/04/2022,01:25:27,0.000,0.0,0.0,0.0
02/04/2022,01:26:25,-0.001,0.0,0.0,0.0
02/04/2022,01:27:26,0.000,0.0,0.0,0.0
02/04/2022,01:28:26,0.000,0.0,0.0,0.0
02/04/2022,01:29:34,-0.001,0.0,0.0,0.0
02/04/2022,01:31:27,0.000,0.0,0.0,0.0
02/04/2022,01:32:26,0.000,0.0,0.0,0.0
02/04/2022,01:33:26,0.000,0.0,0.0,0.0
02/04/2022,01:34:26,-0.001,0.0,0.0,0.0
02/04/2022,01:35:26,0.001,0.0,0.0,0.0
02/04/2022,01:36:25,0.000,0.0,0.0,0.0
02/04/2022,01:37:26,0.001,0.0,0.0,0.0
02/04/2022,01:38:26,0.000,0.0,0.0,0.0
02/04/2022,01:39:59,-0.001,0.0,0.0,0.0
02/04/2022,01:41:26,0.000,0.0,0.0,0.0
02/04/2022,01:42:26,0.000,0.0,0.0,0.0
02/04/2022,01:43:26,-0.001,0.0,0.0,0.0
02/04/2022,01:44:26,0.000,0.0,0.0,0.0
02/04/2022,01:45:26,0.000,0.0,0.0,0.0
02/04/2022,01:46:26,-0.001,0.0,0.0,0.0
02/04/2022,01:47:26,0.001,0.0,0.0,0.0
02/04/2022,01:48:26,0.000,0.0,0.0,0.0
02/04/2022,01:49:26,0.000,0.0,0.0,0.0
02/04/2022,01:50:26,0.000,0.0,0.0,0.0
02/04/2022,01:51:26,0.000,0.0,0.0,0.0
02/04/2022,01:52:26,0.000,0.0,0.0,0.0
02/04/2022,01:53:26,0.000,0.0,0.0,0.0
02/04/2022,01:54:26,0.000,0.0,0.0,0.0
02/04/2022,01:55:26,0.000,0.0,0.0,0.0
02/04/2022,01:56:26,0.000,0.0,0.0,0.0
02/04/2022,01:57:25,0.000,0.0,0.0,0.0
02/04/2022,01:58:26,0.000,0.0,0.0,0.0
02/04/2022,01:59:26,0.001,0.0,0.0,0.0
02/04/2022,02:00:26,-0.000,0.0,0.0,0.0
02/04/2022,02:01:26,-0.001,0.0,0.0,0.0
02/04/2022,02:02:26,0.001,0.0,0.0,0.0
02/04/2022,02:03:26,-0.000,0.0,0.0,0.0
02/04/2022,02:04:26,-0.000,0.0,0.0,0.0
02/04/2022,02:05:26,0.000,0.0,0.0,0.0
02/04/2022,02:06:26,-0.001,0.0,0.0,0.0
02/04/2022,02:07:26,0.000,0.0,0.0,0.0
02/04/2022,02:08:25,-0.000,0.0,0.0,0.0
02/04/2022,02:09:26,0.000,0.0,0.0,0.0
02/04/2022,02:10:26,0.000,0.0,0.0,0.0
02/04/2022,02:11:26,0.000,0.0,0.0,0.0
02/04/2022,02:12:26,-0.001,0.0,0.0,0.0
02/04/2022,02:13:26,0.000,0.0,0.0,0.0
02/04/2022,02:14:34,0.000,0.0,0.0,0.0
02/04/2022,02:15:26,0.001,0.0,0.0,0.0
02/04/2022,02:16:26,0.001,0.0,0.0,0.0
02/04/2022,02:17:35,0.000,0.0,0.0,0.0
02/04/2022,02:19:35,0.000,0.0,0.0,0.0
02/04/2022,02:21:27,-0.001,0.0,0.0,0.0
02/04/2022,02:22:25,0.000,0.0,0.0,0.0
02/04/2022,02:23:26,0.000,0.0,0.0,0.0
02/04/2022,02:24:26,0.000,0.0,0.0,0.0
02/04/2022,02:25:26,0.000,0.0,0.0,0.0
02/04/2022,02:26:26,0.000,0.0,0.0,0.0
02/04/2022,02:27:27,0.000,0.0,0.0,0.0
02/04/2022,02:28:25,0.001,0.0,0.0,0.0
02/04/2022,02:29:28,0.001,0.0,0.0,0.0
02/04/2022,02:30:26,0.000,0.0,0.0,0.0
02/04/2022,02:31:26,0.001,0.0,0.0,0.0
02/04/2022,02:32:26,0.000,0.0,0.0,0.0
02/04/2022,02:33:35,-0.000,0.0,0.0,0.0
02/04/2022,02:35:27,0.000,0.0,0.0,0.0
02/04/2022,02:36:25,0.000,0.0,0.0,0.0
02/04/2022,02:37:26,0.001,0.0,0.0,0.0
02/04/2022,02:38:26,-0.000,0.0,0.0,0.0
02/04/2022,02:39:26,-0.000,0.0,0.0,0.0
02/04/2022,02:40:26,0.001,0.0,0.0,0.0
02/04/2022,02:41:26,0.000,0.0,0.0,0.0
02/04/2022,02:42:26,0.000,0.0,0.0,0.0
02/04/2022,02:43:26,0.000,0.0,0.0,0.0
02/04/2022,02:44:26,-0.001,0.0,0.0,0.0
02/04/2022,02:45:26,0.000,0.0,0.0,0.0
02/04/2022,02:46:26,0.000,0.0,0.0,0.0
02/04/2022,02:47:26,0.001,0.0,0.0,0.0
02/04/2022,02:48:34,0.000,0.0,0.0,0.0
02/04/2022,02:49:25,0.000,0.0,0.0,0.0
02/04/2022,02:50:26,0.000,0.0,0.0,0.0
02/04/2022,02:51:26,-0.000,0.0,0.0,0.0
02/04/2022,02:52:26,0.000,0.0,0.0,0.0
02/04/2022,02:53:26,0.001,0.0,0.0,0.0
02/04/2022,02:54:26,0.001,0.0,0.0,0.0
02/04/2022,02:55:26,0.001,0.0,0.0,0.0
02/04/2022,02:56:26,0.000,0.0,0.0,0.0
02/04/2022,02:57:26,0.000,0.0,0.0,0.0
02/04/2022,02:58:35,0.000,0.0,0.0,0.0
02/04/2022,02:59:26,0.000,0.0,0.0,0.0
02/04/2022,03:00:26,0.000,0.0,0.0,0.0
02/04/2022,03:01:26,0.000,0.0,0.0,0.0
02/04/2022,03:02:26,0.000,0.0,0.0,0.0
02/04/2022,03:03:26,0.000,0.0,0.0,0.0
02/04/2022,03:04:26,-0.001,0.0,0.0,0.0
02/04/2022,03:05:26,0.000,0.0,0.0,0.0
02/04/2022,03:06:26,0.000,0.0,0.0,0.0
02/04/2022,03:07:26,0.001,0.0,0.0,0.0
02/04/2022,03:08:26,0.000,0.0,0.0,0.0
02/04/2022,03:09:26,0.000,0.0,0.0,0.0
02/04/2022,03:10:26,-0.000,0.0,0.0,0.0
02/04/2022,03:11:26,0.000,0.0,0.0,0.0
02/04/2022,03:12:26,0.000,0.0,0.0,0.0
02/04/2022,03:13:26,0.000,0.0,0.0,0.0
02/04/2022,03:14:26,0.001,0.0,0.0,0.0
02/04/2022,03:15:34,0.000,0.0,0.0,0.0
02/04/2022,03:16:34,0.000,0.0,0.0,0.0
02/04/2022,03:17:26,0.001,0.0,0.0,0.0
02/04/2022,03:18:26,0.001,0.0,0.0,0.0
02/04/2022,03:19:26,0.001,0.0,0.0,0.0
02/04/2022,03:20:26,0.000,0.0,0.0,0.0
02/04/2022,03:21:26,0.000,0.0,0.0,0.0
02/04/2022,03:22:26,0.000,0.0,0.0,0.0
02/04/2022,03:23:26,0.000,0.0,0.0,0.0
02/04/2022,03:24:26,0.000,0.0,0.0,0.0
02/04/2022,03:25:26,0.000,0.0,0.0,0.0
02/04/2022,03:26:26,0.000,0.0,0.0,0.0
02/04/2022,03:27:29,0.000,0.0,0.0,0.0
02/04/2022,03:28:26,0.000,0.0,0.0,0.0
02/04/2022,03:29:26,0.000,0.0,0.0,0.0
02/04/2022,03:30:26,0.000,0.0,0.0,0.0
02/04/2022,03:31:35,0.001,0.0,0.0,0.0
02/04/2022,03:32:25,-0.001,0.0,0.0,0.0
02/04/2022,03:33:26,-0.000,0.0,0.0,0.0
02/04/2022,03:34:26,0.001,0.0,0.0,0.0
02/04/2022,03:35:28,0.000,0.0,0.0,0.0
02/04/2022,03:36:26,0.000,0.0,0.0,0.0
02/04/2022,03:37:26,0.000,0.0,0.0,0.0
02/04/2022,03:38:35,0.000,0.0,0.0,0.0
02/04/2022,03:39:26,0.000,0.0,0.0,0.0
02/04/2022,03:40:26,0.000,0.0,0.0,0.0
02/04/2022,03:41:26,0.000,0.0,0.0,0.0
02/04/2022,03:42:26,0.000,0.0,0.0,0.0
02/04/2022,03:43:26,-0.001,0.0,0.0,0.0
02/04/2022,03:44:27,0.000,0.0,0.0,0.0
02/04/2022,03:45:26,0.000,0.0,0.0,0.0
02/04/2022,03:46:26,0.000,0.0,0.0,0.0
02/04/2022,03:47:26,0.001,0.0,0.0,0.0
02/04/2022,03:48:26,0.001,0.0,0.0,0.0
02/04/2022,03:49:35,0.000,0.0,0.0,0.0
02/04/2022,03:51:26,0.000,0.0,0.0,0.0
02/04/2022,03:52:26,0.001,0.0,0.0,0.0
02/04/2022,03:53:26,-0.000,0.0,0.0,0.0
02/04/2022,03:54:27,-0.001,0.0,0.0,0.0
02/04/2022,03:55:26,0.001,0.0,0.0,0.0
02/04/2022,03:56:35,0.001,0.0,0.0,0.0
02/04/2022,03:58:27,-0.000,0.0,0.0,0.0
02/04/2022,03:59:26,0.000,0.0,0.0,0.0
02/04/2022,04:00:26,0.000,0.0,0.0,0.0
02/04/2022,04:01:26,0.001,0.0,0.0,0.0
02/04/2022,04:02:26,0.000,0.0,0.0,0.0
02/04/2022,04:03:26,-0.000,0.0,0.0,0.0
02/04/2022,04:04:26,0.001,0.0,0.0,0.0
02/04/2022,04:05:27,-0.000,0.0,0.0,0.0
02/04/2022,04:06:26,0.001,0.0,0.0,0.0
02/04/2022,04:07:26,0.000,0.0,0.0,0.0
02/04/2022,04:08:26,0.000,0.0,0.0,0.0
02/04/2022,04:09:26,0.000,0.0,0.0,0.0
02/04/2022,04:10:26,0.000,0.0,0.0,0.0
02/04/2022,04:11:26,0.000,0.0,0.0,0.0
02/04/2022,04:12:26,0.000,0.0,0.0,0.0
02/04/2022,04:13:26,0.000,0.0,0.0,0.0
02/04/2022,04:14:26,0.000,0.0,0.0,0.0
02/04/2022,04:15:26,0.000,0.0,0.0,0.0
02/04/2022,04:16:26,0.001,0.0,0.0,0.0
02/04/2022,04:17:27,-0.000,0.0,0.0,0.0
02/04/2022,04:18:26,0.001,0.0,0.0,0.0
02/04/2022,04:19:26,-0.000,0.0,0.0,0.0
02/04/2022,04:20:26,-0.000,0.0,0.0,0.0
02/04/2022,04:21:26,0.000,0.0,0.0,0.0
02/04/2022,04:22:26,0.000,0.0,0.0,0.0
02/04/2022,04:23:26,0.000,0.0,0.0,0.0
02/04/2022,04:24:35,0.000,0.0,0.0,0.0
02/04/2022,04:25:34,0.000,0.0,0.0,0.0
02/04/2022,04:26:27,0.000,0.0,0.0,0.0
02/04/2022,04:27:26,0.000,0.0,0.0,0.0
02/04/2022,04:28:26,0.001,0.0,0.0,0.0
02/04/2022,04:29:26,-0.000,0.0,0.0,0.0
02/04/2022,04:30:27,-0.001,0.0,0.0,0.0
02/04/2022,04:31:26,0.001,0.0,0.0,0.0
02/04/2022,04:32:34,0.001,0.0,0.0,0.0
02/04/2022,04:33:25,0.000,0.0,0.0,0.0
02/04/2022,04:34:26,0.000,0.0,0.0,0.0
02/04/2022,04:35:26,0.001,0.0,0.0,0.0
02/04/2022,04:36:26,0.000,0.0,0.0,0.0
02/04/2022,04:37:26,0.001,0.0,0.0,0.0
02/04/2022,04:38:27,0.000,0.0,0.0,0.0
02/04/2022,04:39:27,0.001,0.0,0.0,0.0
02/04/2022,04:40:26,0.000,0.0,0.0,0.0
02/04/2022,04:41:27,0.000,0.0,0.0,0.0
02/04/2022,04:42:26,0.000,0.0,0.0,0.0
02/04/2022,04:43:26,0.000,0.0,0.0,0.0
02/04/2022,04:44:27,0.000,0.0,0.0,0.0
02/04/2022,04:45:26,0.000,0.0,0.0,0.0
02/04/2022,04:46:26,0.001,0.0,0.0,0.0
02/04/2022,04:47:35,-0.000,0.0,0.0,0.0
02/04/2022,04:48:26,0.001,0.0,0.0,0.0
02/04/2022,04:49:26,-0.001,0.0,0.0,0.0
02/04/2022,04:50:27,0.001,0.0,0.0,0.0
02/04/2022,04:51:26,0.000,0.0,0.0,0.0
02/04/2022,04:52:26,0.001,0.0,0.0,0.0
02/04/2022,04:53:26,0.001,0.0,0.0,0.0
02/04/2022,04:54:34,0.000,0.0,0.0,0.0
02/04/2022,04:55:26,0.000,0.0,0.0,0.0
02/04/2022,04:56:28,0.002,0.0,0.0,0.0
02/04/2022,04:57:26,0.000,0.0,0.0,0.0
02/04/2022,04:58:27,0.001,0.0,0.0,0.0
02/04/2022,04:59:27,0.000,0.0,0.0,0.0
02/04/2022,05:00:26,0.000,0.0,0.0,0.0
02/04/2022,05:01:27,0.001,0.0,0.0,0.0
02/04/2022,05:02:26,0.001,0.0,0.0,0.0
02/04/2022,05:03:28,0.000,0.0,0.0,0.0
02/04/2022,05:04:26,0.000,0.0,0.0,0.0
02/04/2022,05:05:34,0.001,0.0,0.0,0.0
02/04/2022,05:06:25,0.000,0.0,0.0,0.0
02/04/2022,05:07:26,0.000,0.0,0.0,0.0
02/04/2022,05:08:26,0.000,0.0,0.0,0.0
02/04/2022,05:09:26,0.001,0.0,0.0,0.0
02/04/2022,05:10:26,0.000,0.0,0.0,0.0
02/04/2022,05:11:26,0.000,0.0,0.0,0.0
02/04/2022,05:12:34,0.000,0.0,0.0,0.0
02/04/2022,05:13:26,0.001,0.0,0.0,0.0
02/04/2022,05:14:26,0.000,0.0,0.0,0.0
02/04/2022,05:15:26,0.001,0.0,0.0,0.0
02/04/2022,05:16:26,-0.000,0.0,0.0,0.0
02/04/2022,05:17:26,0.000,0.0,0.0,0.0
02/04/2022,05:18:27,0.002,0.0,0.0,0.0
02/04/2022,05:19:26,0.001,0.0,0.0,0.0
02/04/2022,05:20:35,0.000,0.0,0.0,0.0
02/04/2022,05:21:26,0.000,0.0,0.0,0.0
02/04/2022,05:22:26,0.000,0.0,0.0,0.0
02/04/2022,05:23:26,0.000,0.0,0.0,0.0
02/04/2022,05:24:26,0.001,0.0,0.0,0.0
02/04/2022,05:25:26,0.001,0.0,0.0,0.0
02/04/2022,05:26:26,0.000,0.0,0.0,0.0
02/04/2022,05:27:26,0.002,0.0,0.0,0.0
02/04/2022,05:28:26,0.001,0.0,0.0,0.0
02/04/2022,05:29:26,-0.000,0.0,0.0,0.0
02/04/2022,05:30:35,0.001,0.0,0.0,0.0
02/04/2022,05:32:27,0.000,0.0,0.0,0.0
02/04/2022,05:33:26,0.001,0.0,0.0,0.0
02/04/2022,05:34:26,0.001,0.0,0.0,0.0
02/04/2022,05:35:26,0.001,0.0,0.0,0.0
02/04/2022,05:36:26,0.001,0.0,0.0,0.0
02/04/2022,05:37:26,0.001,0.0,0.0,0.0
02/04/2022,05:38:35,0.001,0.0,0.0,0.0
02/04/2022,05:40:27,0.001,0.0,0.0,0.0
02/04/2022,05:41:26,0.002,0.0,0.0,0.0
02/04/2022,05:42:26,0.002,0.0,0.0,0.0
02/04/2022,05:43:27,0.002,0.0,0.0,0.0
02/04/2022,05:44:27,0.002,0.0,0.0,0.0
02/04/2022,05:45:26,0.003,0.0,0.0,0.0
02/04/2022,05:46:26,0.002,0.0,0.0,0.0
02/04/2022,05:47:26,0.002,0.0,0.0,0.0
02/04/2022,05:48:35,0.004,0.0,0.0,0.0
02/04/2022,05:49:26,0.003,0.0,0.0,0.0
02/04/2022,05:50:26,0.003,0.0,0.0,0.0
02/04/2022,05:51:26,0.003,0.0,0.0,0.0
02/04/2022,05:52:26,0.004,0.0,0.0,0.0
02/04/2022,05:53:26,0.004,0.0,0.0,0.0
02/04/2022,05:54:27,0.002,0.0,0.0,0.0
02/04/2022,05:55:26,0.004,0.0,0.0,0.0
02/04/2022,05:56:26,0.005,0.0,0.0,0.0
02/04/2022,05:57:27,0.005,0.0,0.0,0.0
02/04/2022,05:58:26,0.005,0.0,0.0,0.0
02/04/2022,05:59:26,0.004,0.0,0.0,0.0
02/04/2022,06:00:26,0.005,0.0,0.0,0.0
02/04/2022,06:01:26,0.006,0.0,0.0,0.0
02/04/2022,06:02:26,0.006,0.0,0.0,0.0
02/04/2022,06:03:34,0.006,0.0,0.0,0.0
02/04/2022,06:04:26,0.007,0.0,0.0,0.0
02/04/2022,06:05:27,0.007,0.0,0.0,0.0
02/04/2022,06:06:35,0.008,0.0,0.0,0.0
02/04/2022,06:07:26,0.008,0.0,0.001,0.001
02/04/2022,06:08:26,0.008,0.0,0.001,0.0
02/04/2022,06:09:26,0.009,0.0,0.001,0.0
02/04/2022,06:10:26,0.009,0.0,0.001,0.0
02/04/2022,06:11:27,0.009,0.0,0.001,0.0
02/04/2022,06:12:26,0.010,0.0,0.001,0.0
02/04/2022,06:13:26,0.010,0.0,0.001,0.0
02/04/2022,06:14:27,0.010,0.0,0.002,0.001
02/04/2022,06:15:26,0.011,0.0,0.002,0.0
02/04/2022,06:16:26,0.012,0.0,0.002,0.0
02/04/2022,06:17:28,0.012,0.0,0.002,0.0
02/04/2022,06:18:26,0.013,0.0,0.002,0.0
02/04/2022,06:19:26,0.013,0.0,0.003,0.001
02/04/2022,06:20:27,0.013,0.0,0.003,0.0
02/04/2022,06:21:34,0.014,0.0,0.003,0.0
02/04/2022,06:22:26,0.014,0.0,0.003,0.0
02/04/2022,06:23:26,0.015,0.0,0.004,0.001
02/04/2022,06:24:26,0.015,0.0,0.004,0.0
02/04/2022,06:25:26,0.017,0.0,0.004,0.0
02/04/2022,06:26:27,0.015,0.0,0.004,0.0
02/04/2022,06:27:27,0.017,0.0,0.005,0.001
02/04/2022,06:28:27,0.017,0.0,0.005,0.0
02/04/2022,06:29:34,0.018,0.0,0.005,0.0
02/04/2022,06:30:26,0.018,0.0,0.005,0.0
02/04/2022,06:31:26,0.019,0.0,0.006,0.001
02/04/2022,06:32:26,0.019,0.0,0.006,0.0
02/04/2022,06:33:27,0.021,0.0,0.006,0.0
02/04/2022,06:34:27,0.022,0.0,0.007,0.001
02/04/2022,06:35:27,0.022,0.0,0.007,0.0
02/04/2022,06:36:26,0.023,0.0,0.008,0.001
02/04/2022,06:37:27,0.024,0.0,0.008,0.0
02/04/2022,06:38:26,0.026,0.0,0.008,0.0
02/04/2022,06:39:26,0.024,0.0,0.009,0.001
02/04/2022,06:40:28,0.026,0.0,0.009,0.0
02/04/2022,06:41:26,0.027,0.0,0.01,0.001
02/04/2022,06:42:27,0.027,0.0,0.01,0.0
02/04/2022,06:43:27,0.029,0.0,0.011,0.001
02/04/2022,06:44:26,0.030,0.0,0.011,0.0
02/04/2022,06:45:27,0.031,0.0,0.012,0.001
02/04/2022,06:46:26,0.032,0.0,0.012,0.0
02/04/2022,06:47:52,0.033,0.0,0.013,0.001
02/04/2022,06:49:27,0.035,0.0,0.014,0.001
02/04/2022,06:50:27,0.035,0.0,0.014,0.0
02/04/2022,06:51:26,0.036,0.0,0.015,0.001
02/04/2022,06:52:26,0.038,0.0,0.016,0.001
02/04/2022,06:53:26,0.039,0.0,0.016,0.0
02/04/2022,06:54:27,0.041,0.0,0.017,0.001
02/04/2022,06:55:26,0.041,0.0,0.018,0.001
02/04/2022,06:56:27,0.042,0.0,0.018,0.0
02/04/2022,06:57:26,0.044,0.0,0.019,0.001
02/04/2022,06:58:35,0.046,0.0,0.02,0.001
02/04/2022,06:59:26,0.045,0.0,0.02,0.0
02/04/2022,07:00:27,0.048,0.0,0.021,0.001
02/04/2022,07:01:26,0.050,0.0,0.022,0.001
02/04/2022,07:02:27,0.050,0.0,0.023,0.001
02/04/2022,07:03:27,0.051,0.0,0.024,0.001
02/04/2022,07:04:26,0.053,0.0,0.025,0.001
02/04/2022,07:05:35,0.055,0.0,0.026,0.001
02/04/2022,07:07:29,0.057,0.0,0.027,0.001
02/04/2022,07:08:26,0.058,0.0,0.028,0.001
02/04/2022,07:09:35,0.060,0.0,0.029,0.001
02/04/2022,07:11:27,0.062,0.0,0.031,0.002
02/04/2022,07:12:27,0.064,0.0,0.032,0.001
02/04/2022,07:13:27,0.066,0.0,0.033,0.001
02/04/2022,07:14:26,0.067,0.0,0.035,0.002
02/04/2022,07:15:27,0.069,0.0,0.036,0.001
02/04/2022,07:16:26,0.070,0.0,0.037,0.001
02/04/2022,07:17:26,0.072,0.0,0.038,0.001
02/04/2022,07:18:26,0.074,0.0,0.039,0.001
02/04/2022,07:19:26,0.076,0.0,0.041,0.002
02/04/2022,07:20:35,0.077,0.0,0.042,0.001
02/04/2022,07:21:27,0.079,0.0,0.043,0.001
02/04/2022,07:22:27,0.080,0.0,0.044,0.001
02/04/2022,07:23:34,0.082,0.0,0.046,0.002
02/04/2022,07:24:26,0.083,0.0,0.047,0.001
02/04/2022,07:25:26,0.086,0.0,0.049,0.002
02/04/2022,07:26:27,0.087,0.0,0.05,0.001
02/04/2022,07:27:28,0.090,0.0,0.051,0.001
02/04/2022,07:28:26,0.092,0.0,0.053,0.002
02/04/2022,07:29:26,0.094,0.0,0.054,0.001
02/04/2022,07:30:27,0.096,0.0,0.056,0.002
02/04/2022,07:31:35,0.098,0.0,0.058,0.002
02/04/2022,07:33:27,0.101,0.0,0.061,0.003
02/04/2022,07:34:26,0.103,0.0,0.063,0.002
02/04/2022,07:35:26,0.105,0.0,0.064,0.001
02/04/2022,07:36:27,0.107,0.0,0.066,0.002
02/04/2022,07:37:27,0.109,0.0,0.068,0.002
02/04/2022,07:38:26,0.111,0.0,0.07,0.002
02/04/2022,07:39:26,0.113,0.0,0.072,0.002
02/04/2022,07:40:26,0.115,0.0,0.074,0.002
02/04/2022,07:41:27,0.116,0.0,0.075,0.001
02/04/2022,07:42:26,0.119,0.0,0.077,0.002
02/04/2022,07:43:27,0.122,0.0,0.079,0.002
02/04/2022,07:44:26,0.125,0.0,0.082,0.003
02/04/2022,07:45:27,0.126,0.0,0.084,0.002
02/04/2022,07:46:34,0.130,0.0,0.086,0.002
02/04/2022,07:47:25,0.132,0.0,0.088,0.002
02/04/2022,07:48:26,0.134,0.0,0.09,0.002
02/04/2022,07:49:27,0.136,0.0,0.092,0.002
02/04/2022,07:50:27,0.138,0.0,0.095,0.003
02/04/2022,07:51:27,0.141,0.0,0.097,0.002
02/04/2022,07:52:26,0.143,0.0,0.099,0.002
02/04/2022,07:53:26,0.145,0.0,0.102,0.003
02/04/2022,07:54:26,0.148,0.0,0.104,0.002
02/04/2022,07:55:27,0.151,0.0,0.107,0.003
02/04/2022,07:56:35,0.154,0.0,0.11,0.003
02/04/2022,07:57:27,0.156,0.0,0.112,0.002
02/04/2022,07:58:26,0.159,0.0,0.114,0.002
02/04/2022,07:59:26,0.161,0.0,0.117,0.003
02/04/2022,08:00:26,0.164,0.0,0.12,0.003
02/04/2022,08:01:27,0.165,0.0,0.123,0.003
02/04/2022,08:02:26,0.170,0.0,0.125,0.002
02/04/2022,08:03:27,0.172,0.0,0.128,0.003
02/04/2022,08:04:27,0.173,0.0,0.131,0.003
02/04/2022,08:05:26,0.175,0.0,0.134,0.003
02/04/2022,08:06:26,0.178,0.0,0.137,0.003
02/04/2022,08:07:35,0.181,0.0,0.14,0.003
02/04/2022,08:09:28,0.185,0.0,0.146,0.006
02/04/2022,08:10:27,0.189,0.0,0.149,0.003
02/04/2022,08:11:27,0.193,0.0,0.152,0.003
02/04/2022,08:12:27,0.196,0.0,0.156,0.004
02/04/2022,08:13:26,0.199,0.0,0.159,0.003
02/04/2022,08:14:35,0.204,0.0,0.163,0.004
02/04/2022,08:15:26,0.206,0.0,0.166,0.003
02/04/2022,08:16:26,0.206,0.0,0.169,0.003
02/04/2022,08:17:27,0.208,0.0,0.172,0.003
02/04/2022,08:18:26,0.211,0.0,0.176,0.004
02/04/2022,08:19:27,0.215,0.0,0.18,0.004
02/04/2022,08:20:26,0.218,1.0,0.183,0.003
02/04/2022,08:21:26,0.221,1.0,0.187,0.004
02/04/2022,08:22:27,0.221,1.0,0.19,0.003
02/04/2022,08:23:27,0.226,1.0,0.194,0.004
02/04/2022,08:24:27,0.236,1.0,0.198,0.004
02/04/2022,08:25:27,0.240,1.0,0.202,0.004
02/04/2022,08:26:27,0.242,1.0,0.206,0.004
02/04/2022,08:27:27,0.243,1.0,0.21,0.004
02/04/2022,08:28:26,0.243,1.0,0.214,0.004
02/04/2022,08:29:26,0.229,1.0,0.218,0.004
02/04/2022,08:30:27,0.245,1.0,0.222,0.004
02/04/2022,08:31:27,0.254,1.0,0.226,0.004
02/04/2022,08:32:34,0.259,1.0,0.231,0.005
02/04/2022,08:33:26,0.265,1.0,0.235,0.004
02/04/2022,08:34:27,0.269,1.0,0.239,0.004
02/04/2022,08:35:35,0.280,1.0,0.244,0.005
02/04/2022,08:37:27,0.289,1.0,0.253,0.009
02/04/2022,08:38:26,0.292,1.0,0.258,0.005
02/04/2022,08:39:26,0.293,1.0,0.263,0.005
02/04/2022,08:40:26,0.297,1.0,0.268,0.005
02/04/2022,08:41:26,0.303,1.0,0.273,0.005
02/04/2022,08:42:35,0.309,1.0,0.279,0.006
02/04/2022,08:43:26,0.312,1.0,0.283,0.004
02/04/2022,08:44:27,0.315,1.0,0.288,0.005
02/04/2022,08:45:26,0.310,1.0,0.294,0.006
02/04/2022,08:46:26,0.321,1.0,0.299,0.005
02/04/2022,08:47:27,0.329,1.0,0.304,0.005
02/04/2022,08:48:26,0.334,1.0,0.31,0.006
02/04/2022,08:49:26,0.342,1.0,0.315,0.005
02/04/2022,08:50:27,0.345,1.0,0.321,0.006
02/04/2022,08:51:27,0.348,1.0,0.327,0.006
02/04/2022,08:52:27,0.355,1.0,0.333,0.006
02/04/2022,08:53:26,0.358,1.0,0.339,0.006
02/04/2022,08:54:27,0.362,1.0,0.345,0.006
02/04/2022,08:55:26,0.370,1.0,0.351,0.006
02/04/2022,08:56:26,0.374,1.0,0.357,0.006
02/04/2022,08:57:35,0.381,1.0,0.364,0.007
02/04/2022,08:59:27,0.386,1.0,0.376,0.012
02/04/2022,09:00:27,0.391,1.0,0.382,0.006
02/04/2022,09:01:27,0.391,1.0,0.389,0.007
02/04/2022,09:02:26,0.402,1.0,0.395,0.006
02/04/2022,09:03:27,0.408,1.0,0.402,0.007
02/04/2022,09:04:26,0.407,1.0,0.409,0.007
02/04/2022,09:05:26,0.407,1.0,0.416,0.007
02/04/2022,09:06:27,0.424,1.0,0.423,0.007
02/04/2022,09:07:35,0.426,1.0,0.431,0.008
02/04/2022,09:08:26,0.437,1.0,0.437,0.006
02/04/2022,09:09:27,0.443,1.0,0.444,0.007
02/04/2022,09:10:34,0.446,1.0,0.453,0.009
02/04/2022,09:11:27,0.451,1.0,0.459,0.006
02/04/2022,09:12:27,0.448,1.0,0.466,0.007
02/04/2022,09:13:27,0.454,1.0,0.474,0.008
02/04/2022,09:14:27,0.435,1.0,0.481,0.007
02/04/2022,09:15:27,0.342,1.0,0.487,0.006
02/04/2022,09:16:27,0.346,1.0,0.493,0.006
02/04/2022,09:17:35,0.362,1.0,0.501,0.008
02/04/2022,09:18:35,0.346,1.0,0.507,0.006
02/04/2022,09:19:26,0.474,1.0,0.512,0.005
02/04/2022,09:20:27,0.478,1.0,0.52,0.008
02/04/2022,09:21:26,0.374,1.0,0.528,0.008
02/04/2022,09:22:27,0.478,1.0,0.534,0.006
02/04/2022,09:23:26,0.502,1.0,0.542,0.008
02/04/2022,09:24:26,0.509,1.0,0.551,0.009
02/04/2022,09:25:35,0.517,1.0,0.561,0.01
02/04/2022,09:26:27,0.397,1.0,0.567,0.006
02/04/2022,09:27:27,0.444,1.0,0.574,0.007
02/04/2022,09:28:27,0.528,1.0,0.582,0.008
02/04/2022,09:29:27,0.535,1.0,0.591,0.009
02/04/2022,09:30:27,0.537,1.0,0.6,0.009
02/04/2022,09:31:26,0.555,1.0,0.609,0.009
02/04/2022,09:32:27,0.559,1.0,0.618,0.009
02/04/2022,09:33:27,0.562,1.0,0.627,0.009
02/04/2022,09:34:27,0.564,1.0,0.637,0.01
02/04/2022,09:35:35,0.566,1.0,0.648,0.011
02/04/2022,09:36:27,0.571,1.0,0.656,0.008
02/04/2022,09:37:27,0.407,1.0,0.663,0.007
02/04/2022,09:38:27,0.571,1.0,0.671,0.008
02/04/2022,09:39:27,0.588,1.0,0.679,0.008
02/04/2022,09:40:27,0.412,1.0,0.688,0.009
02/04/2022,09:41:26,0.474,1.0,0.695,0.007
02/04/2022,09:42:26,0.608,1.0,0.704,0.009
02/04/2022,09:43:27,0.472,1.0,0.711,0.007
02/04/2022,09:44:27,0.460,1.0,0.721,0.01
02/04/2022,09:45:26,0.424,1.0,0.73,0.009
02/04/2022,09:46:26,0.422,1.0,0.737,0.007
02/04/2022,09:47:26,0.429,1.0,0.744,0.007
02/04/2022,09:48:27,0.520,1.0,0.751,0.007
02/04/2022,09:49:27,0.635,1.0,0.761,0.01
02/04/2022,09:50:27,0.652,1.0,0.772,0.011
02/04/2022,09:51:26,0.663,2.0,0.783,0.011
02/04/2022,09:52:27,0.663,2.0,0.794,0.011
02/04/2022,09:53:35,0.464,1.0,0.804,0.01
02/04/2022,09:54:26,0.518,1.0,0.812,0.008
02/04/2022,09:55:30,0.470,1.0,0.82,0.008
02/04/2022,09:56:27,0.689,2.0,0.83,0.01
02/04/2022,09:57:28,0.697,2.0,0.842,0.012
02/04/2022,09:58:27,0.696,2.0,0.853,0.011
02/04/2022,09:59:27,0.693,2.0,0.865,0.012
02/04/2022,10:00:27,0.697,2.0,0.877,0.012
02/04/2022,10:01:26,0.687,2.0,0.888,0.011
02/04/2022,10:02:27,0.479,1.0,0.897,0.009
02/04/2022,10:03:35,0.468,1.0,0.906,0.009
02/04/2022,10:05:27,0.465,1.0,0.92,0.014
02/04/2022,10:06:27,0.480,1.0,0.928,0.008
02/04/2022,10:07:27,0.644,1.0,0.938,0.01
02/04/2022,10:08:27,0.710,2.0,0.949,0.011
02/04/2022,10:09:26,0.499,1.0,0.961,0.012
02/04/2022,10:10:26,0.461,1.0,0.969,0.008
02/04/2022,10:11:26,0.453,1.0,0.977,0.008
02/04/2022,10:12:27,0.434,1.0,0.984,0.007
02/04/2022,10:13:35,0.438,1.0,0.992,0.008
02/04/2022,10:14:26,0.446,1.0,0.998,0.006
02/04/2022,10:15:26,0.614,1.0,1.006,0.008
02/04/2022,10:16:27,0.454,1.0,1.016,0.01
02/04/2022,10:17:25,0.458,1.0,1.023,0.007
02/04/2022,10:18:26,0.465,1.0,1.031,0.008
02/04/2022,10:19:27,0.464,1.0,1.039,0.008
02/04/2022,10:20:27,0.463,1.0,1.046,0.007
02/04/2022,10:21:26,0.460,1.0,1.054,0.008
02/04/2022,10:22:27,0.451,1.0,1.062,0.008
02/04/2022,10:23:27,0.438,1.0,1.069,0.007
02/04/2022,10:24:35,0.427,1.0,1.077,0.008
02/04/2022,10:25:26,0.418,1.0,1.083,0.006
02/04/2022,10:26:27,0.410,1.0,1.09,0.007
02/04/2022,10:27:27,0.403,1.0,1.097,0.007